#timestamp,LO_Frequency,Hit,StdDev 
1456664415.9,286046994.6,N
1456664435.7,286046994.3,N
1456664455.5,286046996.0,N
1456664475.4,286046996.4,N
1456664495.2,286046997.4,N
1456664515.0,286046996.6,N
1456664515.9,286046996.6,N
1456664535.8,286046996.6,N
1456664555.6,286046996.8,N
1456664575.4,286046997.9,N
1456664595.3,286046998.3,N
1456664615.1,286046995.7,N
1456664616.0,286046995.7,N
1456664635.8,286046993.9,N
1456664655.6,286046993.2,N
1456664675.5,286046993.3,N
1456664695.3,286046995.1,N
1456664715.1,286046994.6,N
1456664735.9,286046993.7,N
1456664755.7,286046995.7,N
1456664775.5,286046995.2,N
1456664795.4,286046994.4,N
1456664815.2,286046998.0,N
1456664835.0,286046996.5,N
1456664835.9,286046996.5,N
1456664855.8,286046999.4,N
1456664875.6,286046999.1,N
1456664895.4,286046995.3,N
1456664915.3,286046997.7,N
1456664935.1,286046995.3,N
1456664936.0,286046995.3,N
1456664955.8,286046996.0,N
1456664975.7,286046997.1,N
1456664995.5,286046997.9,N
1456665015.3,286046996.5,N
1456665035.2,286046996.7,N
1456665055.9,286046994.9,Y
1456665075.7,286047002.7,P
1456665095.6,286047002.3,N
1456665115.4,286047000.2,N
1456665135.2,286046998.9,N
1456665155.0,286046996.6,N
1456665155.9,286046996.6,N
1456665175.8,286046997.2,N
1456665195.6,286046998.9,N
1456665215.4,286046999.2,N
1456665235.3,286047002.6,N
1456665255.1,286047002.8,N
1456665275.8,286046998.2,N
1456665295.7,286047000.0,N
1456665315.5,286047001.1,N
1456665335.3,286047000.6,N
1456665355.2,286047000.8,N
1456665375.9,286046998.5,N
1456665395.7,286046997.2,N
1456665415.6,286046997.8,N
1456665435.4,286046994.5,N
1456665455.2,286046994.0,N
1456665475.0,286046992.7,N
1456665476.0,286046992.7,N
1456665495.8,286046993.0,N
1456665515.6,286046992.7,N
1456665535.4,286046994.7,N
1456665555.3,286046992.4,N
1456665575.1,286046994.7,N
1456665595.8,286046994.0,N
1456665615.7,286046990.6,N
1456665635.5,286046993.5,N
1456665655.3,286046994.6,N
1456665675.2,286046993.9,N
1456665695.9,286046993.8,N
1456665715.7,286046994.0,N
1456665735.6,286046991.7,N
1456665755.4,286046994.2,N
1456665775.2,286046995.5,N
1456665795.1,286046992.4,N
1456665796.0,286046992.4,N
1456665815.8,286046989.1,Y
1456665835.6,286046996.6,P
1456665855.5,286046997.3,P
1456665875.3,286046997.9,N
1456665895.1,286046999.6,N
1456665915.9,286047000.6,N
1456665935.7,286047004.0,N
1456665955.5,286047001.5,N
1456665975.3,286046999.4,N
1456665995.2,286046998.5,N
1456666015.0,286046998.6,N
1456666015.9,286046998.6,N
1456666035.7,286046999.7,N
1456666055.6,286047001.6,N
1456666075.4,286047004.7,N
1456666095.2,286047004.7,N
1456666115.1,286047005.5,N
1456666116.0,286047005.5,N
1456666135.8,286047008.8,N
1456666155.6,286047011.5,Y
1456666175.5,286047011.3,P
1456666195.3,286047014.2,N
1456666215.1,286047014.8,N
1456666235.9,286047015.4,N
1456666255.7,286047015.2,N
1456666275.5,286047013.1,N
1456666295.4,286047014.9,Y
1456666315.2,286047001.7,P
1456666335.0,286047004.2,N
1456666335.9,286047004.2,N
1456666355.8,286047004.4,N
1456666375.6,286047003.7,N
1456666395.4,286047006.7,N
1456666415.2,286047008.5,N
1456666435.1,286047011.5,Y
1456666436.0,286047011.5,P
1456666455.8,286047009.2,P
1456666475.7,286047007.0,N
1456666495.5,286047005.7,N
1456666515.3,286047006.0,N
1456666535.1,286047005.1,N
1456666555.9,286047006.8,Y
1456666575.7,286046998.3,P
1456666595.6,286046998.6,N
1456666615.4,286046997.8,N
1456666635.2,286046996.1,N
1456666655.0,286046992.1,N
1456666655.9,286046992.1,N
1456666675.8,286046994.9,N
1456666695.6,286046995.2,N
1456666715.4,286046999.3,N
1456666735.3,286046999.4,N
1456666755.1,286046995.8,N
1456666775.8,286046990.6,N
1456666795.7,286046996.0,N
1456666815.5,286046994.7,N
1456666835.3,286046994.3,N
1456666855.2,286046990.6,N
1456666875.9,286046990.7,N
1456666895.7,286046992.3,N
1456666915.6,286046992.1,N
1456666935.4,286046996.1,N
1456666955.2,286046993.7,N
1456666975.0,286046992.4,N
1456666975.9,286046992.4,N
1456666995.8,286046993.8,N
1456667015.6,286046994.8,N
1456667035.4,286046993.2,N
1456667055.3,286046991.8,N
1456667075.1,286046993.9,N
1456667095.8,286046995.9,N
1456667115.7,286046993.5,N
1456667135.5,286046994.3,N
1456667155.3,286046992.4,Y
1456667175.2,286046998.5,P
1456667195.9,286046999.1,N
1456667215.7,286046998.5,N
1456667235.6,286046998.8,N
1456667255.4,286046997.1,N
1456667275.2,286046996.5,N
1456667295.1,286046998.8,N
1456667296.0,286046998.8,N
1456667315.8,286046999.0,N
1456667335.6,286046995.7,N
1456667355.5,286046993.7,Y
1456667375.3,286046994.9,P
1456667395.1,286046994.4,P
1456667415.9,286046995.5,P
1456667435.7,286046995.8,Y
1456667455.5,286046998.8,P
1456667475.4,286046998.6,N
1456667495.2,286046998.3,N
1456667515.0,286046995.5,Y
1456667515.9,286046995.5,P
1456667535.8,286046996.7,N
1456667555.6,286046996.4,P
1456667575.4,286046993.0,Y
1456667595.3,286046996.4,P
1456667615.1,286046996.2,P
1456667616.0,286046996.2,P
1456667635.8,286046997.8,Y
1456667655.7,286047000.7,P
1456667675.5,286047002.4,N
1456667695.3,286047000.2,N
1456667715.2,286047004.3,N
1456667735.9,286047001.2,N
1456667755.7,286046998.6,N
1456667775.6,286047000.9,N
1456667795.4,286046999.0,N
1456667815.2,286047001.6,N
1456667835.0,286047003.1,N
1456667835.9,286047003.1,N
1456667855.8,286047001.5,N
1456667875.6,286047003.9,N
1456667895.4,286047001.4,N
1456667915.3,286046999.9,N
1456667935.1,286047001.5,N
1456667936.0,286047001.5,N
1456667955.8,286047004.1,N
1456667975.7,286047004.3,N
1456667995.5,286047007.3,Y
